FW7070 Weather Reports


time (UTC)temp
F
wind
direction
speed
knots
gust
knots
rain 1hr
in
rain 24hr
in
rain mn
in
humidity
%
barometer
mb
20260504001631 57 263 12.2 14.8 0.00 0.00 0.00 47 1030.4
20260504001127 56 263 4.3 11.3 0.00 0.00 0.00 49 1030.5
20260504000624 56 263 5.2 8.7 0.00 0.00 0.00 50 1030.3
20260504000121 56 336 4.3 13.0 0.00 0.00 0.00 50 1030.3
20260503235620 56 282 7.8 14.8 0.00 0.00 0.00 50 1030.4
20260503235116 56 283 7.0 13.9 0.00 0.00 0.00 50 1029.9
20260503234614 56 246 9.6 20.0 0.00 0.00 0.00 49 1030.0
20260503234112 55 254 5.2 13.0 0.00 0.00 0.00 51 1030.2
20260503233608 55 243 12.2 13.0 0.00 0.00 0.00 52 1030.1
20260503233059 55 264 6.1 16.5 0.00 0.00 0.00 53 1030.2
20260503232556 54 284 5.2 19.1 0.00 0.00 0.00 55 1030.2
20260503232053 54 266 10.4 15.6 0.00 0.00 0.00 56 1030.5
20260503231551 54 257 13.9 14.8 0.00 0.00 0.00 56 1030.4
20260503231048 54 283 4.3 14.8 0.00 0.00 0.00 56 1030.4
20260503230544 54 266 4.3 23.5 0.00 0.00 0.00 56 1030.6
20260503230042 53 255 7.0 11.3 0.00 0.00 0.00 58 1030.5
20260503225538 53 274 5.2 16.5 0.00 0.00 0.00 59 1030.7
20260503225038 53 257 9.6 13.9 0.00 0.00 0.00 61 1030.9
20260503224536 53 254 6.1 13.0 0.00 0.00 0.00 62 1030.7
20260503224034 53 263 6.1 12.2 0.00 0.00 0.00 60 1030.9
20260503223532 53 271 7.8 17.4 0.00 0.00 0.00 61 1030.8
20260503223027 52 277 8.7 13.9 0.00 0.00 0.00 61 1030.6
20260503222525 53 250 5.2 18.2 0.00 0.00 0.00 61 1030.5
20260503222023 53 236 9.6 11.3 0.00 0.00 0.00 58 1030.6
20260503221521 53 234 3.5 13.0 0.00 0.00 0.00 58 1030.6
20260503221019 54 269 11.3 18.2 0.00 0.00 0.00 58 1030.3
20260503220514 54 245 10.4 13.9 0.00 0.00 0.00 58 1030.8
20260503220011 54 274 8.7 15.6 0.00 0.00 0.00 56 1030.9
20260503215509 55 273 13.9 20.0 0.00 0.00 0.00 55 1030.8
20260503215005 55 262 14.8 20.9 0.00 0.00 0.00 55 1030.9
20260503214504 55 272 12.2 18.2 0.00 0.00 0.00 54 1030.7
20260503214000 55 303 14.8 19.1 0.00 0.00 0.00 54 1030.7
20260503213459 54 238 12.2 27.8 0.00 0.00 0.00 56 1030.8
20260503212954 53 268 16.5 17.4 0.00 0.00 0.00 59 1030.7
20260503212452 53 264 20.9 20.9 0.00 0.00 0.00 59 1030.8
20260503211949 53 244 10.4 23.5 0.00 0.00 0.00 59 1030.7
20260503211447 53 290 7.8 17.4 0.00 0.00 0.00 59 1030.7
20260503210942 53 272 7.0 22.6 0.00 0.00 0.00 59 1030.7
20260503210439 53 262 14.8 22.6 0.00 0.00 0.00 59 1030.6
20260503205934 53 309 7.0 19.1 0.00 0.00 0.00 60 1030.6
20260503205431 53 280 11.3 18.2 0.00 0.00 0.00 58 1030.6
20260503204927 54 286 12.2 13.0 0.00 0.00 0.00 59 1030.7
20260503204425 55 267 7.0 20.0 0.00 0.00 0.00 58 1030.9
20260503203922 55 296 4.3 19.1 0.00 0.00 0.00 58 1030.7
20260503203419 54 273 6.1 22.6 0.00 0.00 0.00 60 1031.1
20260503202916 54 327 7.8 15.6 0.00 0.00 0.00 58 1031.2
20260503202414 54 274 17.4 19.1 0.00 0.00 0.00 58 1030.7
20260503201913 53 268 20.0 22.6 0.00 0.00 0.00 58 1031.1
20260503201409 55 255 14.8 26.1 0.00 0.00 0.00 56 1030.8
20260503200907 54 266 7.0 16.5 0.00 0.00 0.00 58 1031.2
20260503200403 54 266 8.7 18.2 0.00 0.00 0.00 57 1031.6
20260503195900 53 256 7.0 18.2 0.00 0.00 0.00 59 1031.3
20260503195356 53 262 13.0 22.6 0.00 0.00 0.00 60 1031.1
20260503194853 54 313 14.8 21.7 0.00 0.00 0.00 60 1031.5
20260503194350 54 271 5.2 20.9 0.00 0.00 0.00 57 1031.6
20260503193846 53 253 4.3 28.7 0.00 0.00 0.00 58 1031.7
20260503193342 54 280 10.4 16.5 0.00 0.00 0.00 57 1031.4
20260503192838 54 258 7.0 18.2 0.00 0.00 0.00 56 1031.7
20260503192333 54 277 11.3 20.9 0.00 0.00 0.00 56 1031.7
20260503191830 54 243 23.5 24.3 0.00 0.00 0.00 55 1031.9
20260503191327 54 319 16.5 21.7 0.00 0.00 0.00 53 1031.9
20260503190823 54 237 13.0 22.6 0.00 0.00 0.00 55 1032.0
20260503190321 54 295 5.2 17.4 0.00 0.00 0.00 55 1031.9
20260503185818 53 269 11.3 16.5 0.00 0.00 0.00 56 1032.0
20260503185314 53 268 9.6 17.4 0.00 0.00 0.00 57 1032.3
20260503184813 53 266 19.1 20.9 0.00 0.00 0.00 56 1032.4
20260503184310 52 280 9.6 30.4 0.00 0.00 0.00 59 1032.4
20260503183805 53 246 9.6 17.4 0.00 0.00 0.00 57 1032.0
20260503183303 53 263 6.1 20.9 0.00 0.00 0.00 58 1032.3
20260503182800 52 241 11.3 20.0 0.00 0.00 0.00 59 1032.5
20260503182259 52 289 9.6 25.2 0.00 0.00 0.00 59 1032.3
20260503181755 52 264 8.7 13.9 0.00 0.00 0.00 59 1032.4
20260503181253 52 263 8.7 25.2 0.00 0.00 0.00 56 1032.6
20260503180749 53 267 7.0 20.0 0.00 0.00 0.00 56 1032.4
20260503180247 53 274 7.8 20.9 0.00 0.00 0.00 55 1032.4
20260503175743 54 255 13.0 16.5 0.00 0.00 0.00 53 1032.4
20260503175242 54 245 5.2 14.8 0.00 0.00 0.00 51 1032.7
20260503174737 53 271 4.3 16.5 0.00 0.00 0.00 51 1032.7
20260503174236 53 263 6.1 20.0 0.00 0.00 0.00 48 1032.7
20260503173736 54 279 4.3 13.0 0.00 0.00 0.00 48 1032.5
20260503173232 54 295 8.7 10.4 0.00 0.00 0.00 47 1032.7
20260503172729 53 243 8.7 20.9 0.00 0.00 0.00 46 1032.6
20260503172226 53 291 5.2 15.6 0.00 0.00 0.00 48 1033.0
20260503171722 53 246 7.0 13.0 0.00 0.00 0.00 49 1032.8
20260503171221 53 291 7.0 12.2 0.00 0.00 0.00 47 1033.2
20260503170718 52 257 6.1 13.0 0.00 0.00 0.00 49 1033.1
20260503170214 53 259 11.3 14.8 0.00 0.00 0.00 46 1033.1
20260503160135 49 257 9.6 16.5 0.00 0.00 0.00 48 1033.9
20260503150605 48 273 3.5 15.6 0.00 0.00 0.00 71 1034.4
20260503130955 46 264 7.0 13.9 0.00 0.00 0.00 75 1034.7
20260503130453 46 268 10.4 23.5 0.00 0.00 0.00 75 1034.5
20260503110337 39 232 3.5 6.1 0.00 0.00 0.00 79 1034.5
20260503090223 37 246 1.7 1.7 0.00 0.00 0.00 84 1034.5
20260503081151 37 230 2.6 3.5 0.00 0.00 0.00 85 1034.9
20260503080646 37 180 0.0 4.3 0.00 0.00 0.00 85 1035.0
20260503080144 37 228 2.6 3.5 0.00 0.00 0.00 85 1034.9
20260503072620 39 218 2.6 4.3 0.00 0.00 0.00 85 1034.8
20260503072117 40 261 2.6 4.3 0.00 0.00 0.00 84 1034.9
20260503071614 40 291 2.6 4.3 0.00 0.00 0.00 83 1034.8
20260503071111 40 249 1.7 6.1 0.00 0.00 0.00 83 1034.8
20260503070608 40 274 3.5 3.5 0.00 0.00 0.00 83 1034.8
20260503070106 40 326 2.6 6.1 0.00 0.00 0.00 83 1034.9
20260503055026 41 287 1.7 7.0 0.00 0.00 0.00 83 1035.3
20260503054522 41 290 4.3 6.1 0.00 0.00 0.00 83 1035.0
20260503054020 41 264 2.6 7.8 0.00 0.00 0.00 84 1035.1
20260503053517 41 291 2.6 7.8 0.00 0.00 0.00 83 1035.2
20260503053015 41 277 3.5 7.0 0.00 0.00 0.00 83 1035.0
20260503052512 41 276 4.3 8.7 0.00 0.00 0.00 84 1035.1
20260503052008 41 242 0.0 9.6 0.00 0.00 0.00 85 1034.7
20260503051503 40 244 2.6 4.3 0.00 0.00 0.00 85 1034.9
20260503051001 41 264 7.8 9.6 0.00 0.00 0.00 85 1035.3
20260503050456 40 257 4.3 6.1 0.00 0.00 0.00 85 1035.1
20260503045955 41 272 2.6 6.1 0.00 0.00 0.00 84 1035.4
20260503045452 41 271 3.5 7.8 0.00 0.00 0.00 84 1035.2
20260503044949 40 285 2.6 7.8 0.00 0.00 0.00 85 1035.3
20260503044445 40 285 2.6 8.7 0.00 0.00 0.00 85 1035.2
20260503043943 40 246 3.5 4.3 0.00 0.00 0.00 85 1035.6
20260503043439 40 297 2.6 5.2 0.00 0.00 0.00 85 1035.4
20260503042935 41 236 8.7 8.7 0.00 0.00 0.00 84 1035.5
20260503042432 40 234 1.7 6.1 0.00 0.00 0.00 84 1035.3
20260503041929 40 267 3.5 5.2 0.00 0.00 0.00 84 1035.5
20260503041425 40 303 0.0 7.0 0.00 0.00 0.00 84 1035.5
20260503040923 41 269 3.5 6.1 0.00 0.00 0.00 83 1035.5
20260503040420 41 266 3.5 7.0 0.00 0.00 0.00 83 1035.6
20260503035918 41 259 2.6 7.0 0.00 0.00 0.00 84 1035.6
20260503035414 41 214 4.3 6.1 0.00 0.00 0.00 84 1035.4
20260503034912 41 228 4.3 7.0 0.00 0.00 0.00 84 1035.4
20260503034409 41 242 2.6 4.3 0.00 0.00 0.00 84 1035.7
20260503033906 41 269 1.7 5.2 0.00 0.00 0.00 83 1035.6
20260503033404 41 259 3.5 6.1 0.00 0.00 0.00 83 1035.7
20260503032901 41 285 2.6 4.3 0.00 0.00 0.00 82 1035.7
20260503032400 41 304 2.6 7.0 0.00 0.00 0.00 82 1035.4
20260503031857 41 255 3.5 6.1 0.00 0.00 0.00 81 1035.7
20260503031355 41 254 2.6 6.1 0.00 0.00 0.00 81 1035.8
20260503030851 41 255 5.2 7.8 0.00 0.00 0.00 81 1035.5
20260503030347 41 236 2.6 6.1 0.00 0.00 0.00 81 1035.7
20260503025844 41 274 1.7 6.1 0.00 0.00 0.00 81 1036.0
20260503025341 41 274 2.6 6.1 0.00 0.00 0.00 81 1035.8
20260503024838 41 244 4.3 7.0 0.00 0.00 0.00 81 1035.9
20260503024335 41 254 3.5 5.2 0.00 0.00 0.00 81 1035.8
20260503023832 41 269 1.7 6.1 0.00 0.00 0.00 80 1035.8
20260503023329 41 255 4.3 7.8 0.00 0.00 0.00 81 1036.0
20260503022826 41 279 0.0 5.2 0.00 0.00 0.00 82 1036.1
20260503022325 41 249 3.5 3.5 0.00 0.00 0.00 81 1036.1
20260503021822 41 263 3.5 7.0 0.00 0.00 0.00 81 1036.0
20260503021319 41 226 2.6 4.3 0.00 0.00 0.00 81 1036.1
20260503020816 41 339 0.9 7.8 0.00 0.00 0.00 80 1036.1
20260503020314 41 263 4.3 8.7 0.00 0.00 0.00 79 1036.2
20260503015810 41 261 3.5 7.0 0.00 0.00 0.00 80 1036.2
20260503015307 41 251 3.5 6.1 0.00 0.00 0.00 81 1036.1
20260503014803 41 289 6.1 9.6 0.00 0.00 0.00 82 1036.1
20260503014301 41 293 1.7 3.5 0.00 0.00 0.00 82 1036.1
20260503013758 41 231 0.0 7.8 0.00 0.00 0.00 81 1036.2
20260503013255 41 285 2.6 7.0 0.00 0.00 0.00 81 1036.3
20260503012752 41 278 2.6 5.2 0.00 0.00 0.00 81 1036.2
20260503012250 41 230 4.3 6.1 0.00 0.00 0.00 80 1036.1
20260503011746 41 310 2.6 9.6 0.00 0.00 0.00 80 1036.1
20260503011243 41 259 3.5 6.1 0.00 0.00 0.00 80 1036.1
20260503010739 41 280 3.5 5.2 0.00 0.00 0.00 80 1036.1
20260503010236 41 257 2.6 7.8 0.00 0.00 0.00 80 1036.1
20260503005734 41 266 3.5 6.1 0.00 0.00 0.00 80 1036.0
20260503005231 41 223 1.7 5.2 0.00 0.00 0.00 79 1036.2
20260503004727 41 277 6.1 8.7 0.00 0.00 0.00 79 1035.8
20260503004226 41 259 4.3 6.1 0.00 0.00 0.00 79 1036.0
20260503003722 41 262 3.5 8.7 0.00 0.00 0.00 79 1035.8
20260503003219 41 260 3.5 9.6 0.00 0.00 0.00 78 1036.0
20260503002716 41 262 2.6 7.8 0.00 0.00 0.00 79 1035.9
20260503002213 41 268 3.5 7.0 0.00 0.00 0.00 79 1036.0